Flag for Chile Weather past 2 weeks in Concepción, Chile

Now
64 °F

Clear.


Feels Like: 64 °F
Forecast: 53 / 79 °F
Wind: 16 mph from Southwest

Location: Concepcion Airport

Current Time: Jan 31, 2015 at 10:23:23 PM

Latest Report: Jan 31, 2015 at 10:00 PM


Visibility: 10 mi

Pressure: 29.89 "Hg

Humidity: 78%

Dew point: 57 °F

Location of ConcepciónLocation

Historic Weather in Concepción — Graph

°F

Concepción temperature yesterday

Maximum temperature yesterday: 70 °F (at 3:00 PM)
Minimum temperature yesterday: 54 °F (at 6:00 AM)
Average temperature yesterday: 62 °F

Past Weeks' High & Low Weather Summary

 TemperatureHumidityPressure
High77 °F (Jan 17, 3:00 PM)100% (Jan 18, 12:00 AM)30.09 "Hg (Jan 18, 12:00 AM)
Low50 °F (Jan 29, 7:00 AM)47% (Jan 28, 2:00 PM)29.89 "Hg (Jan 25, 5:00 AM)
Average63 °F78%29.97 "Hg
* Reported Jan 16 9:00 PM — Jan 31 9:00 PM, Concepción, Weather by CustomWeather, © 2014

Note: Actual official high and low records may vary slightly from our data, if they occured in-between our weather recording intervals... More about our weather records

Advertising

Concepción weather history for previous 24 hours

 ConditionsComfort  
Time TempWeatherWind HumidityBarometerVisibility
9:00 PM
Jan 31
66 °FSunny.14 mph78%29.89 "Hg10 mi
8:00 PM70 °FSunny.18 mph64%29.89 "Hg10 mi
7:00 PM72 °FSunny.16 mph61%29.89 "Hg10 mi
6:00 PM73 °FSunny.17 mph57%29.89 "Hg10 mi
5:00 PM77 °FSunny.18 mph54%29.89 "Hg10 mi
4:00 PM75 °FSunny.16 mph57%29.92 "Hg10 mi
3:00 PM75 °FSunny.13 mph54%29.92 "Hg10 mi
2:00 PM73 °FSunny.13 mph53%29.95 "Hg10 mi
1:00 PM72 °FPassing clouds.10 mph57%29.95 "HgN/A
12:00 PM70 °FPassing clouds.7 mph57%29.95 "HgN/A
11:00 AM68 °FSunny.5 mph60%29.95 "Hg10 mi
10:00 AM63 °FPassing clouds.5 mph68%29.95 "HgN/A
9:00 AM57 °FPassing clouds.5 mph88%29.95 "HgN/A
8:00 AM52 °FSunny.No wind94%29.95 "Hg10 mi
7:00 AM52 °FClear.No wind94%29.92 "Hg10 mi
6:00 AM52 °FClear.2 mph94%29.92 "Hg10 mi
5:00 AM54 °FClear.3 mph88%29.89 "Hg10 mi
4:00 AM54 °FClear.2 mph88%29.89 "Hg10 mi
3:00 AM54 °FClear.2 mph94%29.92 "Hg10 mi
2:00 AM55 °FClear.2 mph88%29.92 "Hg10 mi
1:00 AM57 °FClear.7 mph82%29.92 "Hg10 mi
12:00 AM59 °FClear.10 mph77%29.92 "Hg10 mi
11:00 PM
Jan 30
59 °FClear.14 mph82%29.92 "Hg10 mi
10:00 PM61 °FClear.12 mph77%29.92 "Hg10 mi
Weather by CustomWeather, © 2014

See weather overviewHow to use our weather pages